Date String (YYYY-MM-DD hh:mm:ss) UTC,Instrument flags,Ambient pressure (hPa),Sample flow (lpm),Bypass flow (lpm),Sample temperature (°C),Ambient temperature (°C),ASC tube jacket temperature (°C),LED temperature (°C),Box temperature (°C),Sample RH (%),Span deviation,Mass concentration (μg/m³),Mass concentration (μg/m³),Mass concentration (μg/m³)
DateTimeUTC,F1_M11,P_M11,Q1_M11,Q2_M11,T1_M11,T2_M11,T3_M11,T4_M11,T5_M11,U1_M11,ZSPAN_M11,X2_M11,X0_M11,X1_M11
2022-04-30 16:00:00,,0825.3,5.00,0.00,23.3,22.7,00.0,32.3,25.1,12.4,0000.0,0002.81,0009.56,0001.88
2022-04-30 16:01:00,,0825.3,5.00,0.00,23.3,22.7,00.0,32.3,25.0,12.3,0000.0,0002.78,0009.58,0001.87
2022-04-30 16:02:00,,0825.3,5.01,0.00,23.3,22.7,00.0,32.3,25.1,12.0,0000.0,0002.73,0009.36,0001.88
2022-04-30 16:03:00,,0825.3,4.99,0.00,23.3,22.7,00.0,32.3,25.1,12.2,0000.0,0002.71,0009.41,0001.88
2022-04-30 16:04:00,,0825.3,4.99,0.00,23.3,22.7,00.0,32.3,25.1,12.2,0000.0,0002.69,0008.68,0001.87
2022-04-30 16:05:00,,0825.3,5.00,0.00,23.3,22.7,00.0,32.3,25.2,12.7,0000.0,0002.69,0008.25,0001.85
2022-04-30 16:06:00,,0825.3,5.01,0.00,23.3,22.8,00.0,32.3,25.1,12.6,0000.0,0002.63,0008.22,0001.83
2022-04-30 16:07:00,,0825.3,5.00,0.00,23.4,22.8,00.0,32.3,25.2,12.7,0000.0,0002.65,0007.61,0001.83
2022-04-30 16:08:00,,0825.3,5.00,0.00,23.4,22.8,00.0,32.3,25.2,13.1,0000.0,0002.69,0007.12,0001.83
2022-04-30 16:09:00,,0825.3,5.00,0.00,23.4,22.8,00.0,32.3,25.1,13.0,0000.0,0002.69,0006.39,0001.81
2022-04-30 16:10:00,,0825.3,4.99,0.00,23.4,22.8,00.0,32.3,25.1,12.8,0000.0,0002.63,0006.11,0001.79
2022-04-30 16:11:00,,0825.3,5.00,0.00,23.4,22.8,00.0,32.3,25.1,12.5,0000.0,0002.60,0005.74,0001.80
2022-04-30 16:12:00,,0825.3,5.01,0.00,23.4,22.8,00.0,32.3,25.2,12.7,0000.0,0002.60,0005.53,0001.78
2022-04-30 16:13:00,,0825.3,5.01,0.00,23.4,22.8,00.0,32.3,25.1,12.5,0000.0,0002.59,0006.54,0001.77
2022-04-30 16:14:00,,0825.3,5.00,0.00,23.4,22.8,00.0,32.3,25.1,12.3,0000.0,0002.58,0006.84,0001.75
2022-04-30 16:15:00,,0825.3,4.99,0.00,23.4,22.8,00.0,32.3,25.1,12.3,0000.0,0002.55,0006.87,0001.75
2022-04-30 16:16:00,,0825.3,5.01,0.00,23.4,22.8,00.0,32.3,25.1,12.3,0000.0,0002.54,0007.10,0001.74
2022-04-30 16:17:00,,0825.3,5.00,0.00,23.3,22.8,00.0,32.3,25.1,12.2,0000.0,0002.55,0007.18,0001.73
2022-04-30 16:18:00,,0825.3,4.99,0.00,23.4,22.8,00.0,32.3,25.1,12.0,0000.0,0002.57,0007.35,0001.74
2022-04-30 16:19:00,,0825.4,5.02,0.00,23.4,22.8,00.0,32.3,25.1,12.0,0000.0,0002.61,0007.75,0001.75
2022-04-30 16:20:00,,0825.3,4.99,0.00,23.4,22.8,00.0,32.3,25.2,12.2,0000.0,0002.65,0007.82,0001.77
2022-04-30 16:21:00,,0825.3,5.00,0.00,23.4,22.8,00.0,32.3,25.2,12.2,0000.0,0002.69,0007.99,0001.78
2022-04-30 16:22:00,,0825.3,5.00,0.00,23.4,22.8,00.0,32.3,25.2,12.3,0000.0,0002.63,0008.52,0001.76
2022-04-30 16:23:00,,0825.2,5.00,0.00,23.4,22.8,00.0,32.3,25.2,12.6,0000.0,0002.62,0008.53,0001.76
2022-04-30 16:24:00,,0825.3,5.00,0.00,23.4,22.8,00.0,32.3,25.2,12.5,0000.0,0002.58,0007.90,0001.75
2022-04-30 16:25:00,,0825.3,5.00,0.00,23.4,22.8,00.0,32.3,25.1,12.4,0000.0,0002.59,0007.51,0001.75
2022-04-30 16:26:00,,0825.3,4.99,0.00,23.4,22.8,00.0,32.3,25.2,12.3,0000.0,0002.57,0007.30,0001.74
2022-04-30 16:27:00,,0825.3,5.00,0.00,23.4,22.9,00.0,32.3,25.2,12.5,0000.0,0002.53,0007.03,0001.73
2022-04-30 16:28:00,,0825.3,5.00,0.00,23.4,22.9,00.0,32.3,25.2,12.5,0000.0,0002.53,0006.96,0001.74
2022-04-30 16:29:00,,0825.3,5.01,0.00,23.4,22.8,00.0,32.3,25.2,12.6,0000.0,0002.50,0006.75,0001.75
2022-04-30 16:30:00,,0825.3,5.00,0.00,23.4,22.8,00.0,32.3,25.1,12.4,0000.0,0002.54,0006.27,0001.75
2022-04-30 16:31:00,,0825.3,4.99,0.00,23.4,22.8,00.0,32.3,25.1,12.1,0000.0,0002.59,0006.20,0001.76
2022-04-30 16:32:00,,0825.3,5.00,0.00,23.4,22.8,00.0,32.3,25.1,12.1,0000.0,0002.60,0006.03,0001.78
2022-04-30 16:33:00,,0825.3,5.00,0.00,23.4,22.8,00.0,32.3,25.1,12.0,0000.0,0002.66,0005.46,0001.82
2022-04-30 16:34:00,,0825.3,5.00,0.00,23.4,22.8,00.0,32.3,25.1,11.8,0000.0,0002.65,0005.48,0001.85
2022-04-30 16:35:00,,0825.3,5.00,0.00,23.3,22.8,00.0,32.3,25.1,11.8,0000.0,0002.66,0005.62,0001.87
2022-04-30 16:36:00,,0825.4,5.00,0.00,23.3,22.8,00.0,32.3,25.1,11.8,0000.0,0002.69,0005.78,0001.91
2022-04-30 16:37:00,,0825.3,4.99,0.00,23.3,22.7,00.0,32.3,25.1,11.8,0000.0,0002.77,0005.92,0001.96
2022-04-30 16:38:00,,0825.3,5.00,0.00,23.3,22.7,00.0,32.3,25.1,11.9,0000.0,0002.78,0005.83,0001.99
2022-04-30 16:39:00,,0825.3,5.00,0.00,23.3,22.7,00.0,32.3,25.1,11.7,0000.0,0002.80,0007.23,0002.00
2022-04-30 16:40:00,,0825.4,5.00,0.00,23.3,22.8,00.0,32.3,25.1,11.7,0000.0,0002.89,0007.80,0002.01
2022-04-30 16:41:00,,0825.4,5.00,0.00,23.3,22.8,00.0,32.3,25.1,11.5,0000.0,0002.89,0007.72,0002.02
2022-04-30 16:42:00,,0825.4,5.00,0.00,23.3,22.8,00.0,32.3,25.1,11.6,0000.0,0002.89,0007.68,0002.03
2022-04-30 16:43:00,,0825.4,5.00,0.00,23.4,22.8,00.0,32.3,25.1,11.6,0000.0,0002.92,0007.75,0002.04
2022-04-30 16:44:00,,0825.3,5.00,0.00,23.4,22.8,00.0,32.3,25.2,11.6,0000.0,0002.92,0007.49,0002.04
2022-04-30 16:45:00,,0825.3,5.00,0.00,23.4,22.8,00.0,32.3,25.2,11.9,0000.0,0002.94,0007.48,0002.05
2022-04-30 16:46:00,,0825.4,5.01,0.00,23.4,22.9,00.0,32.3,25.2,12.1,0000.0,0002.92,0007.27,0002.05
2022-04-30 16:47:00,,0825.3,5.00,0.00,23.4,22.9,00.0,32.3,25.2,11.8,0000.0,0002.94,0007.14,0002.05
2022-04-30 16:48:00,,0825.4,5.00,0.00,23.4,22.9,00.0,32.3,25.2,11.8,0000.0,0002.95,0007.30,0002.06
2022-04-30 16:49:00,,0825.4,5.00,0.00,23.4,22.9,00.0,32.3,25.2,11.8,0000.0,0003.03,0007.52,0002.10
2022-04-30 16:50:00,,0825.3,5.00,0.00,23.4,22.9,00.0,32.3,25.2,11.7,0000.0,0003.10,0006.44,0002.16
2022-04-30 16:51:00,,0825.3,5.00,0.00,23.4,22.9,00.0,32.3,25.1,11.5,0000.0,0003.07,0006.32,0002.20
2022-04-30 16:52:00,,0825.3,4.99,0.00,23.4,22.8,00.0,32.3,25.1,11.5,0000.0,0003.02,0006.80,0002.23
2022-04-30 16:53:00,,0825.3,4.99,0.00,23.4,22.8,00.0,32.3,25.1,11.5,0000.0,0003.01,0006.78,0002.26
2022-04-30 16:54:00,,0825.3,5.00,0.00,23.4,22.8,00.0,32.3,25.1,11.6,0000.0,0003.03,0006.67,0002.26
2022-04-30 16:55:00,,0825.3,4.99,0.00,23.4,22.8,00.0,32.3,25.2,11.9,0000.0,0003.06,0006.79,0002.27
2022-04-30 16:56:00,,0825.3,5.00,0.00,23.4,22.8,00.0,32.3,25.2,11.8,0000.0,0003.05,0006.73,0002.28
2022-04-30 16:57:00,,0825.3,5.00,0.00,23.4,22.8,00.0,32.3,25.1,11.9,0000.0,0003.12,0006.91,0002.30
2022-04-30 16:58:00,,0825.2,5.00,0.00,23.4,22.8,00.0,32.3,25.1,12.0,0000.0,0003.13,0007.04,0002.31
2022-04-30 16:59:00,,0825.3,5.00,0.00,23.4,22.8,00.0,32.3,25.2,12.2,0000.0,0003.12,0006.72,0002.31
